DL3NBY Weather Reports


time (UTC)temp
C
wind
direction
speed
KPH
gust
KPH
rain 1hr
cm
rain 24hr
cm
rain mn
cm
humidity
%
barometer
mb
20260505171106 13 274 1.6 6.4 1.14 1.17 1.17 99 1004.9
20260505170103 13 251 3.2 12.9 1.04 1.09 1.09 99 1005.1
20260505165100 13 261 3.2 12.9 0.99 1.02 1.02 99 1005.2
20260505164057 13 306 3.2 8.0 0.94 0.97 0.97 99 1005.3
20260505162050 15 221 4.8 16.1 0.13 0.15 0.15 95 1005.1
20260505161107 16 0.0 0.0 0.00 0.03 0.03 91 1004.2
20260505153035 17 0.0 3.2 0.00 0.03 0.03 87 1004.0
20260505151028 17 0 0.0 4.8 0.00 0.03 0.03 86 1004.0
20260505140106 23 0.0 3.2 0.00 0.03 0.03 57 1004.2
20260505124121 23 338 1.6 6.4 0.00 0.03 0.03 55 1005.1
20260505123038 24 249 0.0 4.8 0.00 0.03 0.03 54 1005.1
20260505122035 25 92 3.2 8.0 0.00 0.03 0.03 52 1005.3
20260505121031 24 113 1.6 4.8 0.00 0.03 0.03 52 1005.3
20260505120028 23 90 1.6 4.8 0.00 0.03 0.03 55 1005.4
20260505114022 23 0 1.6 4.8 0.00 0.03 0.03 59 1005.7
20260505113019 23 175 1.6 6.4 0.00 0.03 0.03 56 1005.7
20260505112016 23 52 1.6 6.4 0.00 0.03 0.03 57 1005.8
20260505111113 23 20 1.6 6.4 0.00 0.03 0.03 58 1006.0
20260505110110 22 37 1.6 4.8 0.00 0.03 0.03 57 1006.0
20260505101054 21 67 1.6 8.0 0.00 0.03 0.03 70 1006.6
20260505100051 20 55 0.0 4.8 0.00 0.03 0.03 72 1006.8
20260505095047 20 0 1.6 6.4 0.00 0.03 0.03 76 1006.9
20260505094044 20 90 0.0 4.8 0.00 0.03 0.03 75 1006.8
20260505093041 20 73 0.0 6.4 0.00 0.03 0.03 76 1006.9
20260505092037 20 80 1.6 6.4 0.00 0.03 0.03 78 1007.0
20260505090031 18 170 0.0 4.8 0.00 0.03 0.03 80 1007.2
20260505084025 18 144 3.2 9.7 0.00 0.03 0.03 82 1007.4
20260505083022 18 338 1.6 6.4 0.00 0.03 0.03 83 1007.5
20260505082022 17 113 0.0 4.8 0.00 0.03 0.03 84 1007.6
20260505081016 17 0.0 3.2 0.00 0.03 0.03 87 1007.7
20260505080113 16 0.0 0.0 0.00 0.03 0.03 89 1007.8
20260505075130 16 0 0.0 3.2 0.00 0.03 0.03 89 1008.0
20260505072100 16 0.0 3.2 0.00 0.03 0.03 90 1007.9
20260505071120 15 0 0.0 4.8 0.00 0.03 0.03 90 1008.0
20260505070054 15 0.0 0.0 0.00 0.03 0.03 93 1008.0
20260505065050 15 0.0 3.2 0.00 0.03 0.03 92 1008.0
20260505064047 15 0 0.0 3.2 0.00 0.03 0.03 93 1008.0
20260505063044 14 0.0 3.2 0.00 0.03 0.03 94 1007.9
20260505061038 13 0.0 0.0 0.00 0.03 0.03 98 1007.9
20260505060034 13 0.0 0.0 0.00 0.03 0.03 99 1007.9
20260505055052 13 0.0 0.0 0.00 0.03 0.03 99 1007.9
20260505054029 13 0.0 0.0 0.00 0.03 0.03 99 1008.0
20260505052022 12 0.0 0.0 0.00 0.03 0.03 99 1007.8
20260505051039 12 0.0 0.0 0.00 0.03 0.03 99 1007.9
20260505040057 12 0.0 3.2 0.00 0.03 0.03 99 1008.0
20260505035054 12 0.0 0.0 0.00 0.03 0.03 99 1007.9
20260505034051 12 0.0 0.0 0.00 0.03 0.03 99 1008.0
20260505033047 12 0.0 0.0 0.00 0.03 0.03 99 1008.2
20260505032045 12 0.0 0.0 0.00 0.03 0.03 99 1008.3
20260505031041 12 0.0 3.2 0.03 0.03 0.03 99 1008.4
20260505030038 12 0.0 0.0 0.03 0.03 0.03 99 1008.6
20260505025035 12 0.0 0.0 0.03 0.03 0.03 99 1008.7
20260505024032 12 0.0 0.0 0.03 0.03 0.03 99 1008.8
20260505023029 12 0.0 0.0 0.03 0.03 0.03 99 1008.9
20260505022025 12 225 0.0 3.2 0.03 0.03 0.03 99 1009.0
20260505021022 12 0.0 0.0 0.00 0.00 0.00 99 1008.9
20260505020019 12 0.0 0.0 0.00 0.00 0.00 99 1009.2
20260505014113 12 0.0 0.0 0.00 0.00 0.00 99 1009.6
20260505013110 12 0.0 0.0 0.00 0.00 0.00 99 1009.7
20260505012106 12 0.0 0.0 0.00 0.00 0.00 99 1009.8
20260505011106 12 0.0 0.0 0.00 0.00 0.00 99 1009.8
20260505010100 12 0.0 0.0 0.00 0.00 0.00 99 1009.9
20260505004054 13 0.0 0.0 0.00 0.00 0.00 97 1009.9
20260505003051 13 0.0 0.0 0.00 0.00 0.00 97 1010.1
20260505002048 13 0.0 0.0 0.00 0.00 0.00 96 1010.0
20260505001105 13 0.0 0.0 0.00 0.00 0.00 94 1010.1
20260505000041 13 0.0 0.0 0.00 0.00 0.00 92 1009.9
20260504235038 13 0.0 0.0 0.00 0.00 0.00 91 1010.1
20260504233032 14 0.0 0.0 0.00 0.00 0.00 88 1010.2
20260504232029 14 0.0 0.0 0.00 0.00 0.00 89 1010.2
20260504231025 14 0.0 0.0 0.00 0.00 0.00 87 1010.2
20260504230022 14 0.0 0.0 0.00 0.00 0.00 88 1010.3
20260504225019 14 0.0 1.6 0.00 0.00 0.00 88 1010.3
20260504224036 14 0.0 0.0 0.00 0.00 0.00 86 1010.5
20260504223113 14 0.0 0.0 0.00 0.00 0.00 88 1010.5
20260504222110 13 0.0 0.0 0.00 0.00 0.00 88 1010.5
20260504221110 13 0.0 0.0 0.00 0.00 0.00 89 1010.5
20260504220124 14 0.0 0.0 0.00 0.00 0.00 90 1010.6
20260504214057 15 0.0 0.0 0.00 0.00 0.00 87 1010.7
20260504213054 15 0.0 0.0 0.00 0.00 0.00 84 1010.7
20260504212051 15 0.0 0.0 0.00 0.00 0.00 86 1011.0
20260504211048 15 0.0 0.0 0.00 0.00 0.00 83 1011.0
20260504210044 15 0.0 0.0 0.00 0.00 0.00 83 1011.0
20260504205041 15 0.0 0.0 0.00 0.00 0.00 84 1010.9
20260504204038 15 0.0 0.0 0.00 0.00 0.00 82 1010.8
20260504203055 15 0.0 3.2 0.00 0.00 0.00 84 1010.7
20260504202032 14 0.0 0.0 0.00 0.00 0.00 87 1010.7
20260504201048 14 0.0 0.0 0.00 0.00 0.00 87 1010.7
20260504200025 14 0.0 0.0 0.00 0.00 0.00 87 1010.7
20260504194017 13 0.0 0.0 0.00 0.00 0.00 89 1010.7
20260504192109 15 0.0 0.0 0.00 0.00 0.00 87 1010.6
20260504191106 15 0.0 0.0 0.00 0.00 0.00 87 1010.6
20260504185100 16 0.0 0.0 0.00 0.00 0.00 85 1010.5
20260504184116 16 0.0 0.0 0.00 0.00 0.00 85 1010.4
20260504182110 16 0.0 0.0 0.00 0.00 0.00 83 1010.5
20260504181047 17 0.0 0.0 0.00 0.00 0.00 82 1010.5
20260504180044 17 0.0 0.0 0.00 0.00 0.00 81 1010.5
20260504175040 18 0.0 0.0 0.00 0.00 0.00 79 1010.3
20260504174037 18 0.0 0.0 0.00 0.00 0.00 78 1010.5
20260504173034 19 0.0 0.0 0.00 0.00 0.00 73 1010.4
20260504172031 20 0.0 0.0 0.00 0.00 0.00 68 1010.4